Flag for Norway Weather past 2 weeks in Arendal, Norway

Now
35 °F

Chilly.


Feels Like: 32 °F
Forecast: 29 / 43 °F
Wind: 3 mph from Northwest

Location: Torungen Fyr

Current Time: Mar 3, 2015 at 9:31:26 PM

Latest Report: Mar 3, 2015 at 8:00 PM


Visibility: N/A

Pressure: 29.65 "Hg

Humidity: 85%

Dew point: 31 °F

Location of ArendalLocation

Historic Weather in Arendal — Graph

°F

Arendal temperature yesterday

Maximum temperature yesterday: 44 °F (at 5:00 PM)
Minimum temperature yesterday: 37 °F (at 9:00 AM)
Average temperature yesterday: 40 °F

Past Weeks' High & Low Weather Summary

 TemperatureHumidityPressure
High47 °F (Feb 18, 3:00 PM)98% (Feb 19, 8:00 AM)30.25 "Hg (Feb 19, 8:00 AM)
Low32 °F (Feb 22, 2:00 AM)59% (Feb 22, 3:00 PM)28.91 "Hg (Feb 23, 10:00 AM)
Average40 °F89%29.57 "Hg
* Reported Feb 16 8:00 PM — Mar 3 8:00 PM, Arendal, Weather by CustomWeather, © 2015

Note: Actual official high and low records may vary slightly from our data, if they occured in-between our weather recording intervals... More about our weather records

Advertising

Arendal weather history for previous 24 hours

 ConditionsComfort  
Time TempWeatherWind HumidityBarometerVisibility
8:00 PM
Tue, Mar 3
35 °FChilly.3 mph85%29.65 "HgN/A
7:00 PM37 °FChilly.6 mph83%29.63 "HgN/A
6:00 PM39 °FChilly.6 mph82%29.62 "HgN/A
5:00 PM38 °FChilly.6 mph82%29.61 "HgN/A
4:00 PM38 °FChilly.6 mph82%29.61 "HgN/A
3:00 PM41 °FQuite cool.8 mph65%29.60 "HgN/A
2:00 PM41 °FQuite cool.7 mph70%29.59 "HgN/A
1:00 PM40 °FChilly.13 mph72%29.58 "HgN/A
12:00 PM40 °FQuite cool.9 mph81%29.57 "HgN/A
11:00 AM38 °FChilly.9 mph82%29.57 "HgN/A
10:00 AM38 °FChilly.8 mph81%29.56 "HgN/A
9:00 AM36 °FChilly.7 mph80%29.55 "HgN/A
8:00 AM35 °FChilly.6 mph85%29.50 "HgN/A
7:00 AM35 °FChilly.8 mph88%29.50 "HgN/A
6:00 AM36 °FChilly.7 mph87%29.47 "HgN/A
5:00 AM36 °FChilly.8 mph88%29.47 "HgN/A
4:00 AM36 °FChilly.7 mph88%29.44 "HgN/A
3:00 AM37 °FChilly.7 mph86%29.44 "HgN/A
2:00 AM37 °FChilly.6 mph83%29.44 "HgN/A
1:00 AM38 °FChilly.5 mph85%29.41 "HgN/A
12:00 AM38 °FChilly.6 mph84%29.38 "HgN/A
11:00 PM
Mon, Mar 2
38 °FChilly.7 mph84%29.38 "HgN/A
9:00 PM39 °FChilly.5 mph78%29.32 "HgN/A
Weather by CustomWeather, © 2015

See weather overviewHow to use our weather pages